Location: Unspecified
(48.8582°N, 2.2947°E)
Time: 12:43:48
(UTC+01:00)

Daily predictions for brighter satellites

Satellite Brightness Start Highest point End
(mag) Time Altitude Azimuth Time Altitude Azimuth Time Altitude Azimuth
Cosmos 1943 3.2 17:57:11 10° SSW 18:02:49 86° ESE 18:08:29 10° NNE
NOSS 2-1 (C) 3.7 18:02:05 10° SW 18:05:47 64° NW 18:10:09 10° NE
Cosmos 1908 4.5 18:02:43 10° NNW 18:06:28 47° W 18:10:09 10° SSW
NOSS 2-1 (D) 3.7 18:02:46 10° SW 18:06:28 62° NW 18:10:50 10° NE
Cosmos 1603 4.4 18:01:44 10° SW 18:07:22 55° WNW 18:13:03 10° NNE
Cosmos 1697 Rocket 4.5 18:05:54 10° N 18:08:25 13° NNE 18:10:55 10° NE
Cosmos 1766 Rocket 4.5 18:05:41 10° SSE 18:09:20 27° E 18:13:01 10° NNE
Cosmos 2341 Rocket 4.2 18:06:45 10° N 18:13:03 83° W 18:19:22 10° S
Cosmos 2237 Rocket 4.4 18:10:36 10° WNW 18:13:34 14° NNW 18:16:32 10° N
AQUARIUS 4.2 18:11:01 10° SSE 18:15:32 90° WSW 18:20:04 10° NNW
Cosmos 1151 Rocket 4.3 18:13:42 10° NNE 18:16:55 20° ENE 18:20:08 10° ESE
KORONAS-FOTON 4.1 18:13:57 10° SSW 18:17:43 71° W 18:21:31 10° N
Okean 3 Rocket 3.6 18:18:33 10° S 18:23:03 67° E 18:27:31 10° NNE
Ariane Rocket 3.1 18:17:59 10° SSE 18:23:04 83° WSW 18:28:11 10° NNW
Meteor 1-21 Rocket 4.4 18:17:59 10° S 18:23:55 90° E 18:29:54 10° NNE
Cosmos 1455 3.4 18:21:29 10° NNE 18:24:33 22° ENE 18:27:35 10° ESE
Cosmos 1656 Rocket 3.6 18:19:31 10° NNW 18:25:01 86° ENE 18:30:34 10° SSE
Cosmos 1346 Rocket 3.3 18:21:48 10° N 18:25:28 36° ENE 18:29:05 10° SE
SL-24 R/B - RUBIN 2 4.0 18:21:20 10° NW 18:25:55 68° SW 18:30:13 10° SSE
Cosmos 44 Rocket 3.9 18:21:52 10° S 18:26:07 35° ESE 18:30:19 11° NE
H-2A R/B 4.1 18:23:33 10° ESE 18:26:16 19° ENE 18:29:01 10° NNE
YAOGAN 1 2.5 18:24:29 10° SSE 18:28:47 66° ENE 18:33:06 10° N
Cosmos 2221 3.4 18:24:38 10° NNW 18:28:56 56° W 18:33:13 10° S
CORIOLIS 4.3 18:24:23 10° SSE 18:29:44 79° WSW 18:35:07 10° NNW
CZ-4 R/B 1.5 18:25:46 10° SSE 18:30:01 88° W 18:34:17 10° NNW
Cosmos 1674 4.5 18:31:18 10° SW 18:34:42 32° WNW 18:38:07 10° N
RESURS DK-1 4.0 18:32:01 10° N 18:34:48 17° NE 18:36:22 14° ENE
NOSS 2-1 (E) 4.4 18:31:16 10° WSW 18:34:57 43° NW 18:39:21 10° NE
Cosmos 1315 Rocket 2.8 18:32:57 10° S 18:36:48 57° E 18:40:40 10° NNE
Cosmos 1943 Rocket 4.0 18:32:39 10° NW 18:37:44 36° WSW 18:42:44 10° S
Cosmos 2181 Rocket 4.2 18:31:53 10° S 18:38:21 83° W 18:44:48 10° N
Cosmos 1626 2.6 18:35:16 10° SSE 18:38:43 39° E 18:42:13 10° NNE
Cosmos 1777 Rocket 4.0 18:38:11 10° NNW 18:43:28 88° WSW 18:48:44 10° SSE
ALOS 2.2 18:39:42 10° SSE 18:44:18 63° ENE 18:48:57 10° N
SL-8 Rocket 4.3 18:38:14 10° NNW 18:44:25 74° W 18:50:37 10° S
Cosmos 2151 4.0 18:41:56 10° SE 18:45:29 26° E 18:49:04 10° NNE
IRS-1A Rocket 4.4 18:39:58 10° SSE 18:45:33 85° WSW 18:51:17 10° NNW
EO 1 Del DPAF 4.0 18:47:22 12° NE 18:50:33 31° E 18:54:00 10° SSE
Landsat 4 4.1 18:47:05 10° NNE 18:50:39 41° E 18:54:12 10° S
TELKOM 3 2.7 18:49:05 10° WNW 18:51:11 67° N 18:51:57 34° ENE
NOSS 3-4 (A) 4.2 18:44:25 10° NW 18:51:21 68° SW 18:58:47 10° SSE
NOSS 3-4 (C) 4.2 18:44:31 10° NW 18:51:27 69° SW 18:58:54 10° SSE
ERBS 2.4 18:49:00 10° NW 18:52:21 57° NNE 18:54:27 20° ESE
Meteor 2-8 Rocket 4.4 18:46:19 10° S 18:52:28 78° E 18:58:39 10° NNE
Cosmos 2218 Rocket 4.2 18:48:55 10° NNW 18:55:05 74° W 19:01:11 10° S
Cosmos 1515 Rocket 3.7 18:51:52 10° N 18:56:06 47° ENE 19:00:16 10° SSE
SPOT 3 Rocket 3.5 18:51:32 10° SSE 18:56:38 66° ENE 19:01:46 10° N
Cosmos 1328 3.8 18:54:21 10° S 18:58:23 87° W 19:02:26 10° N
Cosmos 1408 Rocket 3.4 18:54:09 10° S 18:58:26 74° E 19:02:45 10° NNE
Geosat 4.0 18:53:49 10° NNE 18:58:53 90° ESE 19:03:56 10° SSW
Meteor 2-2 Rocket 4.4 18:53:11 10° NNW 18:58:56 78° W 19:04:34 10° S
MOS 1 4.2 18:53:45 10° SSE 18:59:24 86° ENE 19:05:05 10° NNW
ERS-2 2.2 18:57:42 10° SE 19:01:17 50° ENE 19:04:53 10° N
Cosmos 1076 Rocket 4.4 18:57:20 10° SSW 19:01:37 53° WNW 19:05:55 10° N
MTI 3.7 18:59:23 14° NNE 19:02:05 58° E 19:05:14 10° S
FENGYUN 3A 3.6 18:57:04 10° SSE 19:02:26 87° ENE 19:07:51 10° NNW
Cosmos 1400 Rocket 4.4 18:58:43 10° SW 19:02:33 38° WNW 19:06:26 10° N
Lacrosse 5 3.8 19:02:16 10° SE 19:03:57 12° ESE 19:03:57 12° ESE
BREEZE-M DEB (TANK) 2.4 19:01:23 10° SW 19:05:30 46° SSE 19:06:24 31° ESE
CZ-2C R/B 3.9 19:01:47 10° NNE 19:06:31 77° WNW 19:11:09 10° SSW
COSMO-SKYMED 1 2.5 19:02:52 10° NNE 19:07:15 81° ESE 19:11:35 10° SSW
Cosmos 1980 Rocket 3.6 19:04:23 10° N 19:08:11 18° NE 19:08:48 18° NE
USA 81 4.3 19:03:39 10° SSE 19:08:36 43° E 19:13:36 10° NNE
Cosmos 1340 3.2 19:06:00 10° N 19:09:29 34° ENE 19:10:49 26° ESE
Cosmos 1500 Rocket 3.9 19:08:08 10° SSE 19:12:20 41° E 19:15:36 16° NNE
Cosmos 1898 Rocket 3.9 19:08:56 10° NNW 19:14:00 42° ENE 19:17:40 18° ESE
Resurs 01 Rocket 3.7 19:16:46 12° NNE 19:16:46 12° NNE 19:17:21 10° NNE
Cosmos 1703 3.2 19:11:42 10° S 19:15:39 69° E 19:19:36 10° NNE
ATLAS 5 CENTAUR R/B 3.8 19:12:18 10° NW 19:16:09 19° NNE 19:18:03 17° NE
Cosmos 44 3.3 19:20:51 10° SW 19:25:10 66° NW 19:27:48 24° NNE
Cosmos 1328 Rocket 4.0 19:21:10 10° NNW 19:25:30 63° W 19:29:47 10° S
Cosmos 990 Rocket 4.5 19:21:29 10° N 19:26:24 38° ENE 19:27:30 34° E
Cosmos 909 Rocket 4.2 19:20:23 10° NW 19:27:25 78° WSW 19:33:39 10° SSE
Cosmos 1743 Rocket 3.4 19:23:15 10° S 19:27:35 74° E 19:31:45 11° NNE
Cosmos 2228 Rocket 3.2 19:24:04 10° NNW 19:28:40 79° W 19:33:15 10° S
Cosmos 2278 4.0 19:23:50 10° NNW 19:29:19 44° NE 19:31:13 33° E
Cosmos 2098 Rocket 4.1 19:24:06 10° NNW 19:29:23 72° W 19:35:55 10° S
Cosmos 371 Rocket 3.3 19:26:59 10° S 19:31:42 58° ESE 19:33:39 34° NE
Cosmos 1821 Rocket 3.9 19:27:19 10° N 19:33:30 73° E 19:39:44 10° SSE
SJ-6B 3.9 19:36:43 29° NNE 19:36:43 29° NNE 19:38:49 10° N
Cosmos 1535 Rocket 4.4 19:29:02 10° N 19:35:10 65° ENE 19:41:14 10° SSE
USA 215 3.9 19:32:03 25° NE 19:35:30 44° N 19:41:37 10° WNW
DMSP B5D1-3 4.4 19:31:06 10° NNE 19:36:14 86° ESE 19:41:21 10° SSW
Envisat 3.3 19:35:58 40° E 19:36:24 41° ENE 19:41:09 10° N
COSMOS 2406 3.1 19:37:13 10° SSW 19:42:57 85° ESE 19:46:23 25° NNE
Cosmos 2369 3.7 19:38:52 10° NNW 19:44:33 58° ENE 19:46:25 40° ESE
Cosmos 1570 Rocket 4.0 19:40:01 10° S 19:45:15 63° ESE 19:46:56 41° NE
GEOS 3 Rocket 3.6 19:43:42 35° ESE 19:46:03 74° NE 19:51:28 10° NW
Cosmos 1656 3.6 19:44:00 10° NNW 19:49:23 56° ENE 19:50:16 50° E
Nadezhda 3 Rocket 4.1 19:45:33 10° SSW 19:51:54 81° W 19:58:20 10° N
Cosmos 2058 3.4 19:49:13 10° SSW 19:53:21 60° WNW 19:56:48 15° N
Cosmos 1697 Rocket 3.0 19:48:34 10° NNW 19:53:45 44° NE 19:53:45 44° NE
Cosmos 1151 Rocket 3.9 19:50:32 10° NNW 19:54:48 49° W 19:59:01 10° SSW
H-2A R/B 3.9 19:56:32 10° S 20:00:13 44° W 20:03:59 10° NNW
Cosmos 1455 4.0 19:56:49 10° NNW 20:00:18 32° W 20:03:44 10° SSW
Cosmos 1937 Rocket 3.3 19:59:41 10° NNW 20:04:58 76° ENE 20:05:31 68° ESE
Cosmos 2298 Rocket 3.9 20:01:32 10° NNW 20:06:52 72° ENE 20:06:59 72° ENE
Cosmos 44 Rocket 4.2 20:03:07 10° WSW 20:07:35 41° NW 20:09:04 32° N
Meteor 2-10 Rocket 3.2 20:02:43 10° N 20:07:49 79° ENE 20:07:51 79° E
Cosmos 1934 Rocket 4.0 20:01:43 10° N 20:08:07 86° W 20:14:30 10° S
Thor Agena Rocket 3.4 20:10:36 71° SE 20:10:36 71° SE 20:15:34 10° S
RESURS DK-1 3.1 20:09:13 10° NNW 20:12:20 49° NW 20:12:20 49° NW
Cosmos 1605 Rocket 3.8 20:10:02 10° N 20:16:12 78° E 20:18:16 44° SSE
CZ-4C R/B 3.3 20:12:58 10° S 20:15:35 28° S 20:15:35 28° S
Cosmos 2322 Rocket 4.1 20:16:15 10° N 20:18:12 17° N 20:18:12 17° N
Cosmos 2150 Rocket 4.5 20:30:36 10° NNW 20:34:37 54° NW 20:34:37 54° NW
SL-16 R/B 4.2 20:38:54 10° NNW 20:40:35 17° N 20:40:35 17° N
Lacrosse 5 3.7 20:41:15 10° SW 20:43:12 23° SSW 20:43:12 23° SSW
Resurs 01 Rocket 4.3 20:54:20 13° NNW 20:54:20 13° NNW 20:54:47 10° NNW
Cosmos 1980 Rocket 3.5 20:47:36 10° NNW 20:50:35 32° NNW 20:50:35 32° NNW
ATLAS 5 CENTAUR R/B 3.8 20:57:01 10° NW 20:59:37 25° NNW 20:59:37 25° NNW
USA 215 4.0 21:19:24 43° NNW 21:19:24 43° NNW 21:24:09 10° WNW
Cosmos 2344 4.4 21:34:58 10° NW 21:44:06 74° NNE 21:44:06 74° NNE
